Location: Wien
(48.2082°N, 16.3738°E)
Time: 13:02:03
(UTC+02:00)

Tiros 1 despin weight - Pass Details

Date: 16 September 2024
Orbit: 573 x 615 km, 48.2° (Epoch: 06 October)

Event Time Altitude Azimuth Distance (km) Brightness Sun altitude
Rises 07:36:29 0° 280° (W) 2,889 ? 9.7°
Reaches altitude 10° 07:38:47 10° 279° (W) 1,984 ? 10.0°
Maximum altitude 07:43:21 76° 195° (SSW) 640 ? 10.8°
Drops below altitude 10° 07:47:54 10° 109° (ESE) 1,973 ? 11.5°
Sets 07:50:11 0° 108° (ESE) 2,873 ? 11.9°
